Other Public Products
Issued by NWS Grand Forks, ND

Home | Current Version | Previous Version | Graphics & Text | Print | Product List | Glossary On
Versions: 1 2 3 4 5 6 7 8 9 10 11 12 13 14 15 16 17 18 19 20 21 22 23 24 25 26 27 28 29 30 31 32 33 34 35 36 37 38 39 40 41 42 43 44 45 46 47 48 49 50
000
FPUS83 KFGF 021010
OPUFGF
PRAIRIE TO PINES WEATHER ROUNDUP
NATIONAL WEATHER SERVICE EASTERN NORTH DAKOTA/GRAND FORKS ND
500 AM CDT TUE JUN 02 2015

 **SATELLITE DATA USED TO AUGMENT SKY COVER AT AUTOMATED STATIONS**
 *****  WEATHER ACROSS EASTERN NORTH DAKOTA  *****

CITY           SKY/WX    TMP DP  RH WIND       PRES   REMARKS
GRAND FORKS    LGT RAIN  57  54  89 SW13      29.86R
GRAND FORKS AF LGT RAIN  57  54  91 S15       29.84R FOG
GRAND CITY NWS   N/A     55 N/A N/A S10         N/A
BUXTON         NOT AVBL
DEVILS LAKE    CLOUDY    61  55  82 SE13      29.81S
FARGO          CLOUDY    63  47  55 S21G26    29.85F
WAHPETON ARPT  CLOUDY    57  45  62 SE16      29.87F
$$

 *****  WEATHER ACROSS CENTRAL AND WESTERN NORTH DAKOTA  *****

CITY           SKY/WX    TMP DP  RH WIND       PRES   REMARKS
JAMESTOWN      CLOUDY    63  55  75 SW10      29.82R
BISMARCK       CLOUDY    62  58  86 NW12      29.80F
MINOT          CLOUDY    59  57  93 SW7       29.82R
MINOT AFB      CLOUDY    58  58 100 SW3       29.81R
GARRISON         N/A     62  56  80 W5        29.83R
WILLISTON      CLOUDY    64  57  78 NE8       29.82S
DICKINSON      CLOUDY    58  56  93 E10       29.81S
HETTINGER      CLOUDY    60  54  80 NE16G25   29.83S
$$

 *****  OTHER OBSERVATIONS NORTHEAST NORTH DAKOTA  *****

CITY           SKY/WX    TMP DP  RH WIND       PRES   REMARKS
WALHALLA       FAIR      55  55 100 MISG      29.81R
LANGDON        PTSUNNY   59  59 100 SW6       29.83R
CAVALIER       FAIR      57  55  94 S7        29.81R
GRAFTON        FAIR      57  57 100 S14       29.82F
CANDO          FAIR      61  59  94 S12       29.82R
FORT TOTTEN      N/A     60  58  94 SE7       29.95S
ROLLA          FAIR      55  55 100 CALM      29.84S
RUGBY          NOT AVBL
 ***** THE ABOVE OBSERVATIONS ARE NON NWS ARE NOT QUALITY
        CONTROLLED AND MAY MIS-REPORT RAIN FOR SNOW...
$$

 *****  OTHER OBSERVATIONS SOUTHEAST NORTH DAKOTA *****

CITY           SKY/WX    TMP DP  RH WIND       PRES   REMARKS
COOPERSTOWN    NOT AVBL
VALLEY CITY    PTSUNNY   61  55  82 S12       29.81F
OAKES            N/A     64  55  72 S18G24    29.81F
GWINNER        NOT AVBL
SHEYENNE NWR     N/A     60  51  71 S9        29.95S
BUFFALO        NOT AVBL
WYNDMERE         N/A     63  52  67 S12         N/A
 ***** THE ABOVE OBSERVATIONS ARE NON NWS ARE NOT QUALITY
       CONTROLLED AND MAY MIS-REPORT RAIN FOR SNOW...
$$

  *****  WEATHER ACROSS NORTHERN MINNESOTA  *****

CITY           SKY/WX    TMP DP  RH WIND       PRES   REMARKS
FLAG ISLAND    CLOUDY    57  46  67 SE9       29.89F
WARROAD        CLOUDY    59  50  72 S12G17    29.89F
ROSEAU         CLOUDY    61  50  67 S16G23    29.87F
HALLOCK        CLOUDY    55  54  94 S13       29.83S
THF RVR FALLS  CLOUDY    57  52  82 SE14G21   29.88F
HALSTAD        NOT AVBL
FOSSTON        LGT RAIN  59  45  58 SW7       29.94R
BAUDETTE       CLOUDY    57  43  59 S8        29.93F
WASKISH        CLOUDY    57  45  62 S6        29.94R
CROOKSTON      DRIZZLE   55  54  94 S12       29.87F
$$
  *****  WEATHER ACROSS CENTRAL AND WEST MINNESOTA  *****

CITY           SKY/WX    TMP DP  RH WIND       PRES   REMARKS
BEMIDJI        CLOUDY    59  40  48 S12       29.95F
PARK RAPIDS    CLOUDY    57  40  52 SE10      29.96F
WADENA         CLOUDY    57  41  54 S8        29.96F
DETROIT LAKES  CLOUDY    61  46  59 SE8       29.93F
MOORHEAD       CLOUDY    63  46  55 SE17      29.87F
FERGUS FALLS   CLOUDY    61  46  59 SE17G24     N/A
ELBOW LAKE     FAIR      59  46  60 SE17G24   29.92F
MORRIS MN      CLOUDY    57  46  67 SE13      29.94S
STAPLES        CLOUDY    55  41  58 S10G16    29.98F
WHEATON        CLOUDY    57  46  67 SE18      29.90F
$$
  *****  WEATHER ELSEWHERE ACROSS MINNESOTA  *****

CITY           SKY/WX    TMP DP  RH WIND       PRES   REMARKS
DULUTH         MOCLDY    44  33  65 SE7       30.09F
INTRNTL FALLS  CLOUDY    55  38  52 S3        29.96F
ELY            CLOUDY    54  37  54 S7        30.06F
CLOQUET        MOCLDY    39  36  87 CALM      30.08S
BRAINERD       FAIR      56  42  59 S10       30.01F
HIBBING        CLOUDY    42  35  76 SE5       30.06F
ALEXANDRIA     CLOUDY    59  43  55 S15       29.99F
SAINT CLOUD    MOCLDY    54  43  66 SE5       30.04F
MINNEAPOLIS    MOCLDY    54  41  61 SE8       30.08F
$$

  *****  WEATHER ACROSS SOUTH DAKOTA  *****

CITY           SKY/WX    TMP DP  RH WIND       PRES   REMARKS
SIOUX FALLS    MOCLDY    60  51  72 S13G20    29.97F
BROOKINGS      CLOUDY    57  48  72 S14       29.97S
WATERTOWN      MOCLDY    59  51  75 S15       29.91F
HURON          MOCLDY    62  53  72 SE17      29.86F
SISSETON         N/A     62  52  69 S18       29.85F
ABERDEEN       CLOUDY    62  53  72 S20       29.82F
MITCHELL       MOCLDY    63  54  72 SE17      29.89F
PIERRE         CLOUDY    64  60  87 SE10      29.77R
MOBRIDGE       CLOUDY    67  62  84 VRB3      29.76R
RAPID CITY     MOCLDY    57  53  86 SE13      29.80S
$$

  *****  SOME WEATHER IN NEARBY STATES *****

CITY           SKY/WX    TMP DP  RH WIND       PRES   REMARKS
GLASGOW MT     RAIN      56  50  80 N15       29.86R
GREAT FALLS MT MOCLDY    51  50  96 CALM      29.85F
CHEYENNE WY    PTCLDY    50  46  86 W6        30.02F
SCOTTSBLUFF NE CLOUDY    62  53  72 E10G22    29.87F
OMAHA NE       CLOUDY    57  53  86 SE9       30.07R
DES MOINES IA  PTCLDY    57  51  80 SE7       30.11R
DAVENPORT IA   CLOUDY    51  46  83 SE6       30.18S
CHICAGO IL     PTCLDY    42  38  85 CALM      30.18S
EAU CLAIRE WI  PTCLDY    49  36  61 SE3       30.14S
LA CROSSE WI   MOCLDY    51  38  60 SE8       30.16R
$$

  *****  SOME NATIONAL WEATHER *****

CITY           SKY/WX    TMP DP  RH WIND       PRES   REMARKS
LA GUARDIA NY  LGT RAIN  50  47  89 NE10      30.10R
RALEIGH NC     MOCLDY    68  66  93 CALM      29.99S
ATLANTA GA     MOCLDY    67  64  90 CALM      30.01F
NEW ORLEANS LA MOCLDY    74  69  85 CALM      29.98F
OKLAHOMA CITY  PTCLDY    64  61  90 SE7       30.01F
ALBUQUERQUE NM PTCLDY    61  42  49 CALM      30.13F
SALT LAKE CITY PTCLDY    58  49  72 SW7       29.88S
LOS ANGELES CA PTCLDY    59  56  89 VRB5      29.98F
BOISE ID       MOCLDY    60  49  66 N7        29.94R
SEATTLE WA     CLOUDY    55  52  89 S9        29.97R
$$

*** WEATHER ACROSS MANITOBA...SASKATCHEWAN AND ONTARIO ***
                ***ONTARIO***

CITY           SKY/WX    TMP DP  RH WIND       PRES   REMARKS
GERALDTON      PTCLDY    43  28  56 S6        30.12F
THUNDER BAY    MOCLDY    43  39  87 E3        30.14F
SIOUX LOOKOUT  CLOUDY    55  39  54 S9        29.97F
TORONTO        PTCLDY    46  43  87 N3        30.20R
BIG TROUT LK   CLOUDY    50  41  71 S9        29.77F
PICKLE LAKE    NOT AVBL
DRYDEN         MOCLDY    57  41  54 S9G17     29.95S
KENORA         LGT RAIN  55  45  67 S14       29.92F
$$
                *** MANITOBA***

CITY           SKY/WX    TMP DP  RH WIND       PRES   REMARKS
BRANDON        MOCLDY    48  48 100 N7        29.85R
DAUPHIN        CLEAR     55  46  71 N7        29.89S
ISLAND LAKE    CLOUDY    50  48  93 NW6       29.78R
PILOT MOUND      N/A     54  54 100 W2          N/A
THE PAS        PTCLDY    46  37  71 NW9       29.92F
THOMPSON       PTCLDY    43  36  75 W12       29.79R
WINNIPEG       MOCLDY    55  50  82 S8        29.83F
LYNN LAKE      CLOUDY    39  30  70 NW12G18   29.82R
CHURCHILL      MOCLDY    45  43  93 W15G21    29.49R
GILLAM         PTCLDY    43  37  81 W15       29.68S
$$
                ***SASKATCHEWAN***

CITY           SKY/WX    TMP DP  RH WIND       PRES   REMARKS
ESTEVAN        MOCLDY    52  48  87 N9        29.85F
KINDERSLEY     MOCLDY    50  45  81 NE15      29.97R
LLOYDMINSTER   CLEAR     41  37  87 NE7       30.02R
PRINCE ALBERT  MOCLDY    34  34 100 CALM      30.03
REGINA         MOCLDY    52  45  76 NE10      29.93R


USA.gov is the U.S. government's official web portal to all federal, state and local government web resources and services.